Showing default

EXO-0, 59175

Orbit data source: Space-Track

EXO-0, 59175 is a payload satellite owned by Exotrail (FR) in SSO that was launched on Sat, 11 Nov 2023 UTC via an FALCON 9 launch vehicle from the Air Force Western Test Range (AFWTR). Payload-class satellites include a variety of spacecraft equipped with specific instruments for various scientific and technological missions. These include communications satellites like Starlink; space stations such as the ISS; scientific satellites like the Hubble; Earth observation satellites from companies like Planet Labs, Umbra, and HawkEye 360; GPS; miniature CubeSats for education and research; and military/defense satellites.

Loading next visibility...
Identifier
59175, 2023-174DK
Orbit
SSO
Country
Flag of FRFR
Related business
Manufacturer
Endurosat
Mission
Operational Commercial Technology
Bus & Motor
CUBESAT 8U, Unknown motor
Mass
~20 kg wet, ~20 kg dry
Launch date (UTC)
2023-11-11 (3 years ago)
Launch vehicle
FALCON 9
Launch site
Air Force Western Test Range (AFWTR)
Object type
Payload
Rocket body
Debris
Shape & HBR
Box, 0.2 m
Radar Cross Section
0.070 m², Medium (>0.1 m² and < 1m²)

Expand to show TLE details & history
Last TLE update: 2 days ago

TLE from 2 days ago
0 EXO-0
1 59175U 23174DK  26171.20006909  .00007555  00000-0  22646-3 0  9992
2 59175  97.3816 251.3577 0009945 152.6758 207.5010 15.34734386145508
Epoch: 2026-06-20T04:48Z
TLE epoch observation values (Epoch: 2026-06-20T04:48:05.969Z)
Latitude
-0.00004°
Longitude
-89.08528°
Altitude
470.857 km
Speed
7.627 km/s
True Right ascension
16h 45m 25s
True Declination
0° 00' 00"
Sunlit
Object was in full shadow at epoch
Visualization orbit readout
Latitude
Unknown
Longitude
Unknown
Altitude
Unknown
Speed
Unknown
Apparent Right ascension
Unknown
Apparent Declination
Unknown
Sunlit
N/A
Visualization observer readout
Local Sidereal Time
21:40:44
Azimuth
Unknown
Elevation
Unknown
Doppler factor
Unknown
Orbital elements
Apogee altitude
465.454 km
Perigee altitude
451.856 km
Semi-major axis
6,836.792 km
Eccentricity
0.00099
Inclination
97.3816°
RAAN
251.3577°
Arg. of periapsis
152.6758°
True anomaly
207.44843°
Mean anomaly
207.501°
Eccentric anomaly
207.47471°
Mean motion
3.83941 °/min
Orbital period
93.76 mins
BSTAR
0.00022646
Loading maneuver chart data...
Computing Atmospheric mass density...

Documentation

Showing up to 5 results
|